SWA1892 KDEN-KIND

Flight info

Callsign SWA1892
Flight time 1h 58m
Altitude 37000
Route EMMYS8 ZIRKL LEFAM USIRE KOLTS2
Aircraft B738/M-SDE2E3FGHIRWXY/LB1

Departure

Time 2026-05-05 02:16
Airport Denver International Airport (KDEN)

Arrival

Time 2026-05-05 04:14
Airport Indianapolis International Airport (KIND)
Time Latitude Longitude Altitude Speed Heading
2026-05-05 01:51 39.86252 -104.67153 5376 ft 0 kts
2026-05-05 02:08 39.86251 -104.67153 5376 ft 2 kts
2026-05-05 02:08 39.86235 -104.67154 5373 ft 2 kts
2026-05-05 02:08 39.86218 -104.67154 5373 ft 2 kts
2026-05-05 02:09 39.86201 -104.67156 5374 ft 2 kts 14°
2026-05-05 02:09 39.86191 -104.67166 5372 ft 1 kts 91°
2026-05-05 02:09 39.86191 -104.67168 5372 ft 0 kts 91°
2026-05-05 02:11 39.86187 -104.67164 5373 ft 1 kts 144°
2026-05-05 02:12 39.86178 -104.67171 5374 ft 2 kts 225°
2026-05-05 02:12 39.86162 -104.67306 5374 ft 17 kts 254°
2026-05-05 02:12 39.86134 -104.67489 5374 ft 24 kts 264°
2026-05-05 02:13 39.86133 -104.67709 5374 ft 26 kts 270°
2026-05-05 02:13 39.86138 -104.67959 5369 ft 30 kts 270°
2026-05-05 02:13 39.86140 -104.68247 5366 ft 34 kts 270°
2026-05-05 02:13 39.86142 -104.68466 5365 ft 7 kts 285°
2026-05-05 02:14 39.86155 -104.68498 5361 ft 0 kts 309°
2026-05-05 02:14 39.86182 -104.68506 5364 ft 9 kts 352°
2026-05-05 02:14 39.86282 -104.68510 5365 ft 19 kts 360°
2026-05-05 02:14 39.86413 -104.68531 5364 ft 13 kts 323°
2026-05-05 02:15 39.86443 -104.68648 5367 ft 17 kts 272°
2026-05-05 02:15 39.86552 -104.68755 5366 ft 27 kts 14°
2026-05-05 02:15 39.86933 -104.68715 5360 ft 92 kts
2026-05-05 02:15 39.87804 -104.68693 5365 ft 156 kts
2026-05-05 02:16 39.89039 -104.68735 5746 ft 186 kts 359°
2026-05-05 02:16 39.90334 -104.68886 6815 ft 187 kts 355°
2026-05-05 02:16 39.91622 -104.69056 7753 ft 185 kts 355°
2026-05-05 02:16 39.92895 -104.69247 8671 ft 184 kts 354°
2026-05-05 02:17 39.94179 -104.69457 9481 ft 188 kts 354°
2026-05-05 02:17 39.95523 -104.69200 9688 ft 209 kts 33°
2026-05-05 02:17 39.96395 -104.67711 9924 ft 222 kts 75°
2026-05-05 02:17 39.96385 -104.65612 9966 ft 246 kts 96°
2026-05-05 02:18 39.96456 -104.63263 9961 ft 273 kts 83°
2026-05-05 02:18 39.96301 -104.60723 9928 ft 290 kts 109°
2026-05-05 02:18 39.95796 -104.58171 9920 ft 293 kts 91°
2026-05-05 02:18 39.95858 -104.55530 9935 ft 292 kts 88°
2026-05-05 02:19 39.95903 -104.52879 9929 ft 292 kts 90°
2026-05-05 02:19 39.95874 -104.50238 9920 ft 292 kts 91°
2026-05-05 02:19 39.95793 -104.47587 9911 ft 292 kts 92°
2026-05-05 02:19 39.95687 -104.44951 9901 ft 291 kts 93°
2026-05-05 02:20 39.95573 -104.42314 9891 ft 291 kts 93°
2026-05-05 02:20 39.95420 -104.39689 9867 ft 290 kts 99°
2026-05-05 02:20 39.94961 -104.37138 9870 ft 289 kts 105°
2026-05-05 02:20 39.94382 -104.34635 9852 ft 288 kts 106°
2026-05-05 02:21 39.93797 -104.32138 9845 ft 287 kts 106°
2026-05-05 02:21 39.93233 -104.29644 9826 ft 287 kts 105°
2026-05-05 02:21 39.92684 -104.27146 9822 ft 286 kts 105°
2026-05-05 02:21 39.92144 -104.24656 9814 ft 286 kts 105°
2026-05-05 02:22 39.91604 -104.22164 9804 ft 286 kts 104°
2026-05-05 02:22 39.91139 -104.19643 9793 ft 287 kts 100°
2026-05-05 02:22 39.90781 -104.17085 9800 ft 287 kts 99°
2026-05-05 02:22 39.90441 -104.14504 9812 ft 291 kts 98°
2026-05-05 02:23 39.90085 -104.11824 10034 ft 311 kts 99°
2026-05-05 02:23 39.89702 -104.08996 10546 ft 323 kts 100°
2026-05-05 02:23 39.89299 -104.06084 11219 ft 330 kts 101°
2026-05-05 02:23 39.88889 -104.03157 11888 ft 336 kts 102°
2026-05-05 02:24 39.88458 -104.00100 12670 ft 339 kts 102°
2026-05-05 02:24 39.88034 -103.97107 13452 ft 344 kts 102°
2026-05-05 02:24 39.87594 -103.94013 14040 ft 351 kts 102°
2026-05-05 02:24 39.87233 -103.90841 14644 ft 358 kts 95°
2026-05-05 02:25 39.87312 -103.87561 15266 ft 365 kts 85°
2026-05-05 02:25 39.87573 -103.84252 15899 ft 370 kts 84°
2026-05-05 02:25 39.87850 -103.80883 16506 ft 377 kts 84°
2026-05-05 02:25 39.88107 -103.77463 17102 ft 383 kts 84°
2026-05-05 02:26 39.88352 -103.73983 17723 ft 388 kts 84°
2026-05-05 02:26 39.88657 -103.70513 18278 ft 394 kts 82°
2026-05-05 02:26 39.89049 -103.66970 18860 ft 397 kts 81°
2026-05-05 02:26 39.89472 -103.63410 19493 ft 399 kts 80°
2026-05-05 02:27 39.89904 -103.59829 20107 ft 401 kts 80°
2026-05-05 02:27 39.90335 -103.56224 20696 ft 404 kts 80°
2026-05-05 02:27 39.90762 -103.52589 21269 ft 407 kts 81°
2026-05-05 02:27 39.91186 -103.48927 21851 ft 410 kts 81°
2026-05-05 02:28 39.91608 -103.45241 22435 ft 413 kts 81°
2026-05-05 02:28 39.92029 -103.41528 23005 ft 416 kts 81°
2026-05-05 02:28 39.92450 -103.37789 23549 ft 418 kts 80°
2026-05-05 02:28 39.92873 -103.34020 24007 ft 421 kts 80°
2026-05-05 02:29 39.93297 -103.30228 24434 ft 425 kts 81°
2026-05-05 02:29 39.93723 -103.26404 24845 ft 429 kts 81°
2026-05-05 02:29 39.94147 -103.22592 25265 ft 432 kts 81°
2026-05-05 02:29 39.94578 -103.18705 25668 ft 435 kts 81°
2026-05-05 02:30 39.95010 -103.14787 26066 ft 439 kts 81°
2026-05-05 02:30 39.95445 -103.10837 26465 ft 442 kts 81°
2026-05-05 02:30 39.95882 -103.06857 26860 ft 445 kts 81°
2026-05-05 02:30 39.96321 -103.02845 27241 ft 448 kts 81°
2026-05-05 02:31 39.96761 -102.98808 27609 ft 451 kts 81°
2026-05-05 02:31 39.97202 -102.94751 27974 ft 454 kts 81°
2026-05-05 02:31 39.97646 -102.90654 28330 ft 457 kts 81°
2026-05-05 02:31 39.98091 -102.86530 28680 ft 460 kts 81°
2026-05-05 02:32 39.98537 -102.82384 29035 ft 463 kts 81°
2026-05-05 02:32 39.98987 -102.78193 29391 ft 466 kts 81°
2026-05-05 02:32 39.99429 -102.74055 29723 ft 469 kts 81°
2026-05-05 02:32 39.99879 -102.69825 30010 ft 472 kts 81°
2026-05-05 02:33 40.00332 -102.65565 30200 ft 477 kts 81°
2026-05-05 02:33 40.00787 -102.61258 30382 ft 482 kts 80°
2026-05-05 02:33 40.01246 -102.56908 30578 ft 486 kts 80°
2026-05-05 02:33 40.01707 -102.52521 30779 ft 491 kts 80°
2026-05-05 02:34 40.02170 -102.48088 30961 ft 495 kts 80°
2026-05-05 02:34 40.02635 -102.43622 31146 ft 499 kts 80°
2026-05-05 02:34 40.03103 -102.39115 31332 ft 503 kts 80°
2026-05-05 02:34 40.03574 -102.34559 31516 ft 507 kts 80°
2026-05-05 02:35 40.04045 -102.29986 31697 ft 511 kts 79°
2026-05-05 02:35 40.04519 -102.25363 31880 ft 515 kts 79°
2026-05-05 02:35 40.04994 -102.20713 32047 ft 519 kts 79°
2026-05-05 02:35 40.05471 -102.16020 32222 ft 523 kts 79°
2026-05-05 02:36 40.05944 -102.11353 32397 ft 526 kts 79°
2026-05-05 02:36 40.06423 -102.06602 32566 ft 530 kts 79°
2026-05-05 02:36 40.06903 -102.01818 32733 ft 534 kts 79°
2026-05-05 02:36 40.07385 -101.97000 32905 ft 537 kts 79°
2026-05-05 02:37 40.07868 -101.92150 33079 ft 540 kts 79°
2026-05-05 02:37 40.08351 -101.87274 33287 ft 542 kts 79°
2026-05-05 02:37 40.08833 -101.82386 33528 ft 543 kts 78°
2026-05-05 02:37 40.09314 -101.77487 33745 ft 545 kts 78°
2026-05-05 02:38 40.09795 -101.72566 33921 ft 547 kts 78°
2026-05-05 02:38 40.10276 -101.67629 34112 ft 548 kts 78°
2026-05-05 02:38 40.10756 -101.62679 34315 ft 550 kts 78°
2026-05-05 02:38 40.11234 -101.57718 34493 ft 551 kts 78°
2026-05-05 02:39 40.11714 -101.52725 34652 ft 553 kts 78°
2026-05-05 02:39 40.12191 -101.47742 34835 ft 554 kts 78°
2026-05-05 02:39 40.12668 -101.42736 35026 ft 556 kts 78°
2026-05-05 02:39 40.13141 -101.37706 35197 ft 558 kts 79°
2026-05-05 02:40 40.13457 -101.32647 35368 ft 561 kts 83°
2026-05-05 02:40 40.13638 -101.27534 35539 ft 563 kts 85°
2026-05-05 02:40 40.13751 -101.22483 35710 ft 565 kts 86°
2026-05-05 02:40 40.13841 -101.17346 35877 ft 566 kts 86°
2026-05-05 02:41 40.13932 -101.12194 36048 ft 568 kts 86°
2026-05-05 02:41 40.14035 -101.07031 36199 ft 569 kts 85°
2026-05-05 02:41 40.14151 -101.01849 36353 ft 571 kts 85°
2026-05-05 02:41 40.14277 -100.96666 36513 ft 572 kts 85°
2026-05-05 02:42 40.14408 -100.91471 36675 ft 573 kts 85°
2026-05-05 02:42 40.14540 -100.86260 36815 ft 573 kts 85°
2026-05-05 02:42 40.14671 -100.81043 36845 ft 576 kts 85°
2026-05-05 02:43 40.14922 -100.70582 36857 ft 575 kts 85°
2026-05-05 02:43 40.15156 -100.60169 36864 ft 572 kts 85°
2026-05-05 02:44 40.15379 -100.49788 36856 ft 570 kts 85°
2026-05-05 02:44 40.15594 -100.39446 36846 ft 568 kts 85°
2026-05-05 02:45 40.15775 -100.30384 36847 ft 567 kts 85°
2026-05-05 02:45 40.15971 -100.20085 36874 ft 565 kts 85°
2026-05-05 02:46 40.16157 -100.09884 36869 ft 564 kts 85°
2026-05-05 02:46 40.16335 -99.99641 36854 ft 563 kts 85°
2026-05-05 02:47 40.16504 -99.89410 36837 ft 563 kts 85°
2026-05-05 02:47 40.16663 -99.79176 36813 ft 562 kts 85°
2026-05-05 02:48 40.16814 -99.68954 36803 ft 562 kts 85°
2026-05-05 02:48 40.16955 -99.58721 36809 ft 562 kts 85°
2026-05-05 02:49 40.17088 -99.48488 36818 ft 563 kts 86°
2026-05-05 02:49 40.17210 -99.38328 36826 ft 563 kts 86°
2026-05-05 02:50 40.17325 -99.28102 36827 ft 562 kts 86°
2026-05-05 02:50 40.17430 -99.17875 36816 ft 562 kts 86°
2026-05-05 02:51 40.17525 -99.07663 36804 ft 561 kts 86°
2026-05-05 02:51 40.17613 -98.97473 36790 ft 560 kts 86°
2026-05-05 02:52 40.17691 -98.87286 36791 ft 559 kts 86°
2026-05-05 02:52 40.17759 -98.77134 36791 ft 557 kts 86°
2026-05-05 02:53 40.17819 -98.67027 36792 ft 555 kts 86°
2026-05-05 02:53 40.17870 -98.56932 36795 ft 554 kts 86°
2026-05-05 02:54 40.17912 -98.46870 36812 ft 553 kts 86°
2026-05-05 02:54 40.17946 -98.36888 36799 ft 552 kts 86°
2026-05-05 02:55 40.17970 -98.26871 36795 ft 551 kts 86°
2026-05-05 02:55 40.17986 -98.16858 36793 ft 550 kts 86°
2026-05-05 02:56 40.17994 -98.06856 36796 ft 549 kts 86°
2026-05-05 02:56 40.17993 -97.96881 36806 ft 548 kts 86°
2026-05-05 02:57 40.17983 -97.86901 36816 ft 548 kts 86°
2026-05-05 02:57 40.17965 -97.77008 36838 ft 547 kts 87°
2026-05-05 02:58 40.17938 -97.67052 36851 ft 547 kts 87°
2026-05-05 02:58 40.17903 -97.57100 36850 ft 547 kts 87°
2026-05-05 02:59 40.17867 -97.48768 36854 ft 547 kts 87°
2026-05-05 02:59 40.17816 -97.38812 36837 ft 547 kts 87°
2026-05-05 03:00 40.17757 -97.28921 36816 ft 547 kts 87°
2026-05-05 03:00 40.17689 -97.18966 36789 ft 547 kts 87°
2026-05-05 03:01 40.17613 -97.09024 36782 ft 547 kts 87°
2026-05-05 03:01 40.17528 -96.99083 36797 ft 546 kts 87°
2026-05-05 03:02 40.17434 -96.89140 36808 ft 546 kts 87°
2026-05-05 03:02 40.17333 -96.79226 36813 ft 545 kts 87°
2026-05-05 03:03 40.17223 -96.69361 36810 ft 545 kts 87°
2026-05-05 03:03 40.17105 -96.59463 36805 ft 545 kts 87°
2026-05-05 03:04 40.16979 -96.49543 36784 ft 545 kts 87°
2026-05-05 03:04 40.16844 -96.39641 36773 ft 544 kts 87°
2026-05-05 03:05 40.16702 -96.29742 36760 ft 544 kts 88°
2026-05-05 03:05 40.16513 -96.19886 36751 ft 545 kts 88°
2026-05-05 03:06 40.16283 -96.09973 36742 ft 545 kts 88°
2026-05-05 03:06 40.16046 -96.00084 36750 ft 545 kts 88°
2026-05-05 03:07 40.15807 -95.90189 36763 ft 544 kts 88°
2026-05-05 03:07 40.15564 -95.80295 36773 ft 544 kts 88°
2026-05-05 03:08 40.15313 -95.70410 36785 ft 544 kts 88°
2026-05-05 03:08 40.15053 -95.60514 36793 ft 544 kts 88°
2026-05-05 03:09 40.14786 -95.50700 36793 ft 544 kts 88°
2026-05-05 03:09 40.14508 -95.40816 36775 ft 543 kts 88°
2026-05-05 03:10 40.14223 -95.30951 36759 ft 543 kts 89°
2026-05-05 03:10 40.13930 -95.21087 36738 ft 543 kts 89°
2026-05-05 03:11 40.13628 -95.11233 36748 ft 542 kts 89°
2026-05-05 03:11 40.13319 -95.01381 36755 ft 542 kts 89°
2026-05-05 03:12 40.13003 -94.91606 36758 ft 541 kts 89°
2026-05-05 03:12 40.12677 -94.81764 36751 ft 541 kts 89°
2026-05-05 03:13 40.12343 -94.71945 36740 ft 541 kts 89°
2026-05-05 03:13 40.12001 -94.62134 36728 ft 540 kts 89°
2026-05-05 03:14 40.11651 -94.52328 36717 ft 540 kts 89°
2026-05-05 03:14 40.11293 -94.42534 36712 ft 539 kts 89°
2026-05-05 03:15 40.10928 -94.32757 36709 ft 538 kts 89°
2026-05-05 03:15 40.10557 -94.23048 36711 ft 538 kts 89°
2026-05-05 03:16 40.10176 -94.13285 36708 ft 537 kts 89°
2026-05-05 03:16 40.09786 -94.03533 36707 ft 537 kts 90°
2026-05-05 03:17 40.09390 -93.93804 36703 ft 536 kts 90°
2026-05-05 03:17 40.08986 -93.84081 36702 ft 536 kts 90°
2026-05-05 03:18 40.08577 -93.74439 36694 ft 535 kts 90°
2026-05-05 03:18 40.08157 -93.64751 36695 ft 534 kts 90°
2026-05-05 03:19 40.07514 -93.50223 36689 ft 533 kts 90°
2026-05-05 03:19 40.07075 -93.40542 36687 ft 533 kts 90°
2026-05-05 03:20 40.06628 -93.30887 36689 ft 532 kts 90°
2026-05-05 03:20 40.06176 -93.21257 36689 ft 531 kts 90°
2026-05-05 03:21 40.05715 -93.11636 36691 ft 530 kts 90°
2026-05-05 03:21 40.05248 -93.02043 36688 ft 529 kts 91°
2026-05-05 03:22 40.04777 -92.92530 36709 ft 528 kts 91°
2026-05-05 03:22 40.04295 -92.82968 36721 ft 527 kts 91°
2026-05-05 03:23 40.03807 -92.73425 36739 ft 526 kts 91°
2026-05-05 03:23 40.03311 -92.63881 36761 ft 526 kts 91°
2026-05-05 03:24 40.02808 -92.54360 36742 ft 525 kts 91°
2026-05-05 03:24 40.02302 -92.44930 36755 ft 524 kts 91°
2026-05-05 03:25 40.01784 -92.35434 36743 ft 524 kts 91°
2026-05-05 03:25 40.01260 -92.25950 36721 ft 524 kts 91°
2026-05-05 03:26 40.00729 -92.16482 36706 ft 523 kts 91°
2026-05-05 03:26 40.00189 -92.07010 36685 ft 523 kts 91°
2026-05-05 03:27 39.99645 -91.97595 36685 ft 522 kts 91°
2026-05-05 03:27 39.99092 -91.88145 36674 ft 522 kts 92°
2026-05-05 03:28 39.98531 -91.78706 36667 ft 522 kts 92°
2026-05-05 03:28 39.97963 -91.69282 36677 ft 521 kts 92°
2026-05-05 03:29 39.97388 -91.59862 36673 ft 520 kts 92°
2026-05-05 03:29 39.96807 -91.50470 36692 ft 520 kts 92°
2026-05-05 03:30 39.96219 -91.41095 36702 ft 519 kts 92°
2026-05-05 03:30 39.95625 -91.31741 36724 ft 517 kts 92°
2026-05-05 03:31 39.95028 -91.22452 36717 ft 516 kts 92°
2026-05-05 03:31 39.94421 -91.13137 36718 ft 515 kts 92°
2026-05-05 03:32 39.93809 -91.03851 36711 ft 513 kts 93°
2026-05-05 03:32 39.93191 -90.94590 36689 ft 512 kts 93°
2026-05-05 03:33 39.92567 -90.85354 36669 ft 511 kts 93°
2026-05-05 03:33 39.91937 -90.76151 36665 ft 509 kts 93°
2026-05-05 03:34 39.91303 -90.66969 36662 ft 509 kts 94°
2026-05-05 03:34 39.90660 -90.57787 36652 ft 509 kts 94°
2026-05-05 03:35 39.90012 -90.48617 36661 ft 508 kts 94°
2026-05-05 03:35 39.89355 -90.39440 36669 ft 508 kts 94°
2026-05-05 03:36 39.88697 -90.30352 36676 ft 507 kts 94°
2026-05-05 03:36 39.88028 -90.21206 36677 ft 506 kts 94°
2026-05-05 03:37 39.87354 -90.12083 36673 ft 505 kts 94°
2026-05-05 03:37 39.86674 -90.02986 36673 ft 504 kts 94°
2026-05-05 03:38 39.85988 -89.93903 36674 ft 504 kts 95°
2026-05-05 03:38 39.85300 -89.84896 36686 ft 503 kts 95°
2026-05-05 03:39 39.84603 -89.75847 36691 ft 502 kts 95°
2026-05-05 03:39 39.83917 -89.66796 36695 ft 501 kts 92°
2026-05-05 03:40 39.83779 -89.62272 36557 ft 499 kts 89°
2026-05-05 03:40 39.83800 -89.57786 36265 ft 492 kts 87°
2026-05-05 03:40 39.83887 -89.53367 36001 ft 484 kts 87°
2026-05-05 03:40 39.83980 -89.49026 35741 ft 478 kts 87°
2026-05-05 03:41 39.84056 -89.44723 35485 ft 473 kts 88°
2026-05-05 03:41 39.84108 -89.40470 35232 ft 469 kts 88°
2026-05-05 03:41 39.84142 -89.36238 34979 ft 465 kts 89°
2026-05-05 03:41 39.84163 -89.32051 34728 ft 461 kts 89°
2026-05-05 03:42 39.84177 -89.27893 34484 ft 458 kts 89°
2026-05-05 03:42 39.84187 -89.23753 34254 ft 455 kts 90°
2026-05-05 03:42 39.84196 -89.19646 34024 ft 453 kts 90°
2026-05-05 03:42 39.84204 -89.15609 33800 ft 451 kts 90°
2026-05-05 03:43 39.84211 -89.11539 33544 ft 449 kts 90°
2026-05-05 03:43 39.84217 -89.07505 33232 ft 443 kts 90°
2026-05-05 03:43 39.84222 -89.03517 32880 ft 439 kts 90°
2026-05-05 03:43 39.84226 -88.99557 32503 ft 436 kts 90°
2026-05-05 03:44 39.84228 -88.95620 32135 ft 433 kts 90°
2026-05-05 03:44 39.84230 -88.91709 31773 ft 430 kts 90°
2026-05-05 03:44 39.84230 -88.87827 31414 ft 428 kts 90°
2026-05-05 03:44 39.84228 -88.83968 31058 ft 425 kts 90°
2026-05-05 03:45 39.84226 -88.80133 30704 ft 423 kts 90°
2026-05-05 03:45 39.84222 -88.76312 30355 ft 421 kts 90°
2026-05-05 03:45 39.84218 -88.73783 30121 ft 420 kts 90°
2026-05-05 03:45 39.84213 -88.69990 29764 ft 418 kts 90°
2026-05-05 03:46 39.84205 -88.66216 29359 ft 416 kts 90°
2026-05-05 03:46 39.84197 -88.62455 28964 ft 413 kts 91°
2026-05-05 03:46 39.84188 -88.58732 28589 ft 410 kts 91°
2026-05-05 03:46 39.84177 -88.55044 28226 ft 407 kts 91°
2026-05-05 03:47 39.84166 -88.51366 27847 ft 404 kts 91°
2026-05-05 03:47 39.84153 -88.47712 27495 ft 402 kts 91°
2026-05-05 03:47 39.84140 -88.44087 27140 ft 399 kts 91°
2026-05-05 03:47 39.84125 -88.40486 26786 ft 397 kts 91°
2026-05-05 03:48 39.84109 -88.36953 26441 ft 395 kts 91°
2026-05-05 03:48 39.84093 -88.33391 26094 ft 393 kts 91°
2026-05-05 03:48 39.84076 -88.29847 25744 ft 391 kts 91°
2026-05-05 03:48 39.84057 -88.26322 25397 ft 389 kts 91°
2026-05-05 03:49 39.84049 -88.22811 25055 ft 388 kts 90°
2026-05-05 03:49 39.84059 -88.19304 24740 ft 386 kts 90°
2026-05-05 03:49 39.84074 -88.15844 24711 ft 379 kts 90°
2026-05-05 03:49 39.84083 -88.12438 24688 ft 371 kts 90°
2026-05-05 03:50 39.84090 -88.09131 24678 ft 360 kts 90°
2026-05-05 03:50 39.84094 -88.05921 24669 ft 348 kts 90°
2026-05-05 03:50 39.84099 -88.02863 24669 ft 337 kts 91°
2026-05-05 03:50 39.84102 -87.99846 24682 ft 333 kts 91°
2026-05-05 03:51 39.84104 -87.96793 24722 ft 343 kts 91°
2026-05-05 03:51 39.84104 -87.93645 24730 ft 352 kts 91°
2026-05-05 03:51 39.84105 -87.90445 24718 ft 353 kts 91°
2026-05-05 03:51 39.84105 -87.87267 24704 ft 350 kts 91°
2026-05-05 03:52 39.84105 -87.84101 24708 ft 348 kts 91°
2026-05-05 03:52 39.84104 -87.80962 24709 ft 346 kts 91°
2026-05-05 03:52 39.84101 -87.77842 24715 ft 344 kts 91°
2026-05-05 03:52 39.84098 -87.74740 24641 ft 341 kts 91°
2026-05-05 03:53 39.84097 -87.73901 24566 ft 341 kts 91°
2026-05-05 03:53 39.84096 -87.72884 24467 ft 341 kts 91°
2026-05-05 03:53 39.84096 -87.72574 24445 ft 341 kts 91°
2026-05-05 03:54 39.84093 -87.70383 24207 ft 342 kts 91°
2026-05-05 03:54 39.84087 -87.67267 23667 ft 350 kts 91°
2026-05-05 03:54 39.84081 -87.63989 22548 ft 375 kts 90°
2026-05-05 03:54 39.84074 -87.60572 21829 ft 385 kts 90°
2026-05-05 03:55 39.84065 -87.57096 21508 ft 382 kts 90°
2026-05-05 03:55 39.84067 -87.53664 21250 ft 376 kts 89°
2026-05-05 03:55 39.84097 -87.50276 20920 ft 374 kts 89°
2026-05-05 03:55 39.84138 -87.46905 20555 ft 372 kts 89°
2026-05-05 03:56 39.84181 -87.43533 20199 ft 371 kts 89°
2026-05-05 03:56 39.84221 -87.40177 19876 ft 369 kts 89°
2026-05-05 03:56 39.84258 -87.36853 19556 ft 366 kts 89°
2026-05-05 03:56 39.84292 -87.33548 19249 ft 364 kts 89°
2026-05-05 03:57 39.84324 -87.30269 18937 ft 362 kts 89°
2026-05-05 03:57 39.84354 -87.27042 18632 ft 360 kts 89°
2026-05-05 03:57 39.84383 -87.23787 18329 ft 358 kts 89°
2026-05-05 03:57 39.84411 -87.20548 18019 ft 357 kts 89°
2026-05-05 03:58 39.84438 -87.17328 17702 ft 354 kts 89°
2026-05-05 03:58 39.84464 -87.14132 17359 ft 352 kts 89°
2026-05-05 03:58 39.84489 -87.10956 17026 ft 350 kts 89°
2026-05-05 03:58 39.84512 -87.07794 16700 ft 348 kts 89°
2026-05-05 03:59 39.84535 -87.04649 16387 ft 346 kts 89°
2026-05-05 03:59 39.84557 -87.01527 16069 ft 344 kts 89°
2026-05-05 03:59 39.84578 -86.98413 15748 ft 343 kts 89°
2026-05-05 03:59 39.84599 -86.95361 15443 ft 341 kts 89°
2026-05-05 04:00 39.84618 -86.92288 15151 ft 338 kts 89°
2026-05-05 04:00 39.84636 -86.89236 14845 ft 336 kts 89°
2026-05-05 04:00 39.84653 -86.86191 14526 ft 335 kts 89°
2026-05-05 04:00 39.84669 -86.83162 14227 ft 334 kts 89°
2026-05-05 04:01 39.84685 -86.80146 13945 ft 332 kts 89°
2026-05-05 04:01 39.84700 -86.77154 13661 ft 330 kts 89°
2026-05-05 04:01 39.84713 -86.74175 13338 ft 329 kts 89°
2026-05-05 04:01 39.84725 -86.71207 13027 ft 326 kts 90°
2026-05-05 04:02 39.84530 -86.68286 12764 ft 323 kts 101°
2026-05-05 04:02 39.84049 -86.65452 12517 ft 319 kts 105°
2026-05-05 04:02 39.83509 -86.62658 12202 ft 318 kts 105°
2026-05-05 04:02 39.82984 -86.59901 11862 ft 315 kts 104°
2026-05-05 04:03 39.82482 -86.57133 11390 ft 314 kts 104°
2026-05-05 04:03 39.81997 -86.54366 10876 ft 314 kts 104°
2026-05-05 04:03 39.81517 -86.51596 10434 ft 312 kts 104°
2026-05-05 04:03 39.81046 -86.48872 10228 ft 304 kts 104°
2026-05-05 04:04 39.80586 -86.46214 10022 ft 299 kts 104°
2026-05-05 04:04 39.80129 -86.43587 9653 ft 297 kts 104°
2026-05-05 04:04 39.79675 -86.40972 9285 ft 292 kts 105°
2026-05-05 04:04 39.79259 -86.38477 9225 ft 274 kts 99°
2026-05-05 04:05 39.79414 -86.36114 9112 ft 260 kts 69°
2026-05-05 04:05 39.80249 -86.34128 8995 ft 242 kts 46°
2026-05-05 04:05 39.81340 -86.32506 8694 ft 239 kts 52°
2026-05-05 04:05 39.81818 -86.30442 8223 ft 244 kts 97°
2026-05-05 04:06 39.81230 -86.28481 7864 ft 227 kts 139°
2026-05-05 04:06 39.80126 -86.27056 7376 ft 229 kts 144°
2026-05-05 04:06 39.78931 -86.25547 6650 ft 248 kts 144°
2026-05-05 04:06 39.77534 -86.24245 5891 ft 244 kts 171°
2026-05-05 04:07 39.75924 -86.24223 5168 ft 228 kts 207°
2026-05-05 04:07 39.74741 -86.25484 4442 ft 223 kts 241°
2026-05-05 04:07 39.74437 -86.27476 3692 ft 232 kts 265°
2026-05-05 04:07 39.74105 -86.29482 2936 ft 229 kts 237°
2026-05-05 04:08 39.73056 -86.30921 2775 ft 209 kts 231°
2026-05-05 04:08 39.72668 -86.32606 2804 ft 196 kts 273°
2026-05-05 04:08 39.73407 -86.34095 2821 ft 211 kts 314°
2026-05-05 04:08 39.74752 -86.34992 2907 ft 224 kts 326°
2026-05-05 04:09 39.76269 -86.35682 2939 ft 238 kts 335°
2026-05-05 04:09 39.77964 -86.35873 2903 ft 255 kts
2026-05-05 04:09 39.79560 -86.34800 2932 ft 268 kts 45°
2026-05-05 04:09 39.80535 -86.32757 2923 ft 266 kts 73°
2026-05-05 04:10 39.81061 -86.30473 2929 ft 263 kts 79°
2026-05-05 04:10 39.81547 -86.28190 2939 ft 262 kts 78°
2026-05-05 04:10 39.82034 -86.25895 2934 ft 262 kts 83°
2026-05-05 04:10 39.81968 -86.23628 2920 ft 243 kts 122°
2026-05-05 04:11 39.81002 -86.22065 2899 ft 206 kts 164°
2026-05-05 04:11 39.79742 -86.21825 2921 ft 174 kts 205°
2026-05-05 04:11 39.78696 -86.22401 2881 ft 159 kts 209°
2026-05-05 04:11 39.77820 -86.23096 2722 ft 139 kts 224°
2026-05-05 04:12 39.77108 -86.23851 2543 ft 126 kts 226°
2026-05-05 04:12 39.76485 -86.24600 2205 ft 123 kts 226°
2026-05-05 04:12 39.75833 -86.25427 1638 ft 137 kts 226°
2026-05-05 04:12 39.75163 -86.26311 1401 ft 138 kts 226°
2026-05-05 04:13 39.74493 -86.27197 1225 ft 137 kts 224°
2026-05-05 04:13 39.73796 -86.28033 1045 ft 134 kts 222°
2026-05-05 04:13 39.73137 -86.28922 954 ft 134 kts 223°
2026-05-05 04:13 39.72485 -86.29714 792 ft 121 kts 223°
2026-05-05 04:14 39.71929 -86.30433 769 ft 106 kts 225°
2026-05-05 04:14 39.71619 -86.30829 765 ft 43 kts 222°
2026-05-05 04:14 39.71421 -86.31024 762 ft 22 kts 174°
2026-05-05 04:14 39.71319 -86.30953 759 ft 11 kts 104°
2026-05-05 04:15 39.71319 -86.30949 759 ft 0 kts 97°
2026-05-05 04:15 39.71323 -86.30925 760 ft 6 kts 65°
2026-05-05 04:15 39.71363 -86.30866 763 ft 12 kts 43°
2026-05-05 04:15 39.71444 -86.30765 765 ft 21 kts 43°
2026-05-05 04:16 39.71572 -86.30596 766 ft 31 kts 44°
2026-05-05 04:16 39.71748 -86.30375 767 ft 39 kts 44°
2026-05-05 04:16 39.71885 -86.30145 771 ft 21 kts 99°
2026-05-05 04:16 39.71777 -86.30012 777 ft 24 kts 148°
2026-05-05 04:17 39.71647 -86.29930 777 ft 0 kts 159°